Flag for Croatia Weather past 2 weeks in Zagreb, Croatia

Now
75 °F

Passing clouds.


Feels Like: 77 °F
Forecast: 64 / 78 °F
Wind: 8 mph from Northeast

Location: Zagreb / Pleso

Current Time: Jul 22, 2014 at 5:13:58 PM

Latest Report: Jul 22, 2014 at 4:30 PM


Visibility: N/A

Pressure: 29.74 "Hg

Humidity: 61%

Dew point: 61 °F

Location of ZagrebLocation

Historic Weather in Zagreb — Graph

°F

Zagreb temperature yesterday

Maximum temperature yesterday: 79 °F (at 9:30 AM)
Minimum temperature yesterday: 66 °F (at 4:30 AM)
Average temperature yesterday: 72 °F

Past Weeks' High & Low Weather Summary

 TemperatureHumidityPressure
High90 °F (Jul 7, 4:00 PM)100% (Jul 7, 9:00 PM)30.07 "Hg (Jul 7, 9:00 PM)
Low55 °F (Jul 10, 10:30 AM)35% (Jul 17, 4:30 PM)29.65 "Hg (Jul 8, 5:00 PM)
Average70 °F80%29.88 "Hg
* Reported Jul 7 4:00 PM — Jul 22 4:00 PM, Zagreb, Weather by CustomWeather, © 2014

Note: Actual official high and low records may vary slightly from our data, if they occured in-between our weather recording intervals... More about our weather records

Advertising

Zagreb weather history for previous 24 hours

 ConditionsComfort  
Time TempWeatherWind HumidityBarometerVisibility
4:00 PM
Jul 22
75 °FPassing clouds.7 mph65%29.77 "HgN/A
3:30 PM73 °FPassing clouds.8 mph74%29.77 "HgN/A
3:00 PM73 °FPassing clouds.5 mph74%29.77 "HgN/A
2:30 PM72 °FPassing clouds.6 mph78%29.77 "HgN/A
2:00 PM72 °FPassing clouds.2 mph73%29.77 "HgN/A
1:30 PM70 °FPartly sunny.5 mph83%29.77 "HgN/A
1:00 PM68 °FPassing clouds.6 mph88%29.77 "HgN/A
12:30 PM68 °FPassing clouds.6 mph83%29.80 "HgN/A
12:00 PM68 °FPartly sunny.2 mph88%29.80 "HgN/A
11:30 AM66 °FLight rain. Partly sunny.3 mph94%29.77 "HgN/A
11:00 AM66 °FLight rain. Partly sunny.1 mph94%29.77 "HgN/A
10:30 AM66 °FLight rain. Broken clouds.3 mph94%29.77 "Hg4 mi
10:00 AM66 °FLight rain. Scattered clouds.3 mph88%29.77 "HgN/A
9:30 AM66 °FLight rain. Passing clouds.3 mph88%29.77 "HgN/A
9:00 AM64 °FLight rain. Passing clouds.3 mph94%29.77 "HgN/A
8:30 AM64 °FScattered clouds.6 mph94%29.77 "HgN/A
8:00 AM63 °FPartly sunny.3 mph100%29.74 "HgN/A
7:30 AM63 °FLight rain. Partly sunny.1 mph100%29.77 "Hg5 mi
7:00 AM63 °FPassing clouds.5 mph94%29.74 "HgN/A
6:30 AM63 °FPassing clouds.No wind94%29.74 "HgN/A
6:00 AM63 °FClear.1 mph94%29.77 "Hg10 mi
5:30 AM63 °FClear.2 mph94%29.74 "Hg10 mi
5:00 AM61 °FClear.3 mph100%29.74 "Hg10 mi
4:30 AM63 °FClear.1 mph94%29.74 "Hg10 mi
4:00 AM63 °FClear.2 mph94%29.74 "Hg10 mi
3:30 AM63 °FClear.2 mph94%29.74 "Hg10 mi
3:00 AM63 °FClear.3 mph100%29.74 "Hg10 mi
2:30 AM63 °FClear.5 mph94%29.74 "Hg10 mi
2:00 AM63 °FClear.2 mph94%29.74 "Hg10 mi
1:30 AM64 °FClear.1 mph94%29.77 "Hg10 mi
1:00 AM63 °FClear.5 mph100%29.77 "Hg10 mi
12:30 AM64 °FClear.6 mph94%29.77 "Hg10 mi
12:00 AM66 °FClear.3 mph88%29.77 "Hg10 mi
11:30 PM
Jul 21
66 °FClear.5 mph88%29.77 "Hg10 mi
11:00 PM68 °FPassing clouds.3 mph88%29.77 "HgN/A
10:30 PM68 °FClear.5 mph88%29.77 "Hg10 mi
10:00 PM68 °FClear.3 mph88%29.80 "Hg10 mi
9:30 PM68 °FSunny.5 mph88%29.80 "Hg10 mi
9:00 PM70 °FSunny.1 mph83%29.77 "Hg10 mi
8:30 PM72 °FSunny.5 mph83%29.77 "Hg10 mi
8:00 PM75 °FPassing clouds.5 mph69%29.77 "HgN/A
7:30 PM75 °FPassing clouds.2 mph78%29.77 "HgN/A
7:00 PM75 °FPassing clouds.3 mph78%29.77 "HgN/A
6:30 PM75 °FPassing clouds.6 mph74%29.80 "HgN/A
6:00 PM75 °FPassing clouds.5 mph74%29.80 "HgN/A
5:30 PM75 °FPassing clouds.3 mph74%29.80 "HgN/A
5:00 PM75 °FPassing clouds.3 mph74%29.80 "HgN/A
Weather by CustomWeather, © 2014

See weather overviewHow to use our weather pages